Weather History for O'Neill, NE

Change the Weather History Date:

Friday, October 4, 2013

  Actual Average Record
Temperature  
Mean Temperature 52 °F -  
Max Temperature 67 °F 69 °F 89 °F (2011)
Min Temperature 39 °F 42 °F 26 °F (1953)
Degree Days  
Heating Degree Days 12    
Growing Degree Days 2 (Base 50)    
Moisture  
Dew Point 51 °F    
Average Humidity 86    
Maximum Humidity 93    
Minimum Humidity 68    
Precipitation  
Precipitation 0.14 in - - ()
Sea Level Pressure  
Sea Level Pressure 29.74 in    
Wind  
Wind Speed 16 mph (ENE)    
Max Wind Speed 29 mph    
Max Gust Speed 38 mph    
Visibility 5 miles    
Events Fog , Rain , Thunderstorm    
Averages and records for this station are not official NWS values.
T = Trace of Precipitation, MM = Missing Value Source: NWS Daily Summary

Daily Weather History Graph

Daily Weather History Graph

Search for Another Location

Airport:

Trip Planner

Search our weather history database for the weather conditions in past years. The results will help you decide how hot, cold, wet, or windy it might be!

Date:

Astronomy

Oct. 04, 2013 Rise Set
Actual Time 7:35 AM CDT 7:10 PM CDT
Civil Twilight 7:07 AM CDT 7:38 PM CDT
Nautical Twilight 6:34 AM CDT 8:11 PM CDT
Astronomical Twilight 6:01 AM CDT 8:43 PM CDT
Moon 7:12 AM CDT (10/4) 6:53 PM CDT (10/4)
Length of Visible Light 12h 31m
Length of Day
11h 34m
Waning Crescent, 0% of the Moon is Illuminated
Oct 4
Waning Crescent
Oct 4
New
Oct 11
First Quarter
Oct 18
Full
Oct 26
Last Quarter

Hourly Weather History & Observations

Time (CDT) Temp. Windchill Dew Point Humidity Pressure Visibility Wind Dir Wind Speed Gust Speed Precip Events Conditions
12:15 AM 54.0 °F - 51.8 °F 92% 29.83 in 0.2 mi NE 15.0 mph 21.9 mph N/A Fog Fog
12:35 AM 54.0 °F - 51.8 °F 92% 29.82 in 0.2 mi NE 17.3 mph 21.9 mph N/A Fog Fog
12:55 AM 54.0 °F - 51.8 °F 92% 29.83 in 0.2 mi NE 13.8 mph 18.4 mph N/A Fog Fog
1:15 AM 54.0 °F - 51.8 °F 92% 29.83 in 0.2 mi NE 16.1 mph 21.9 mph N/A Fog Fog
1:35 AM 54.0 °F - 51.8 °F 92% 29.82 in 0.2 mi NE 11.5 mph - N/A Fog Fog
1:55 AM 54.1 °F - 51.8 °F 92% 29.81 in 0.5 mi NE 16.1 mph 19.6 mph N/A Fog Fog
2:15 AM 54.1 °F - 52.0 °F 92% 29.81 in 0.5 mi NE 17.3 mph 21.9 mph N/A Fog Fog
2:35 AM 54.5 °F - 52.2 °F 92% 29.82 in 0.5 mi NE 12.7 mph 20.7 mph N/A Fog Fog
2:55 AM 54.7 °F - 52.5 °F 92% 29.82 in 0.5 mi ENE 10.4 mph 19.6 mph N/A Fog , Thunderstorm Fog
3:15 AM 54.9 °F - 52.7 °F 92% 29.80 in 0.5 mi NE 17.3 mph - N/A Rain Rain
3:35 AM 54.9 °F - 52.7 °F 92% 29.79 in 1.0 mi NE 13.8 mph - N/A   Light Drizzle
3:55 AM 54.9 °F - 52.7 °F 92% 29.79 in 2.0 mi NE 12.7 mph - 0.01 in   Overcast
4:15 AM 54.9 °F - 52.7 °F 92% 29.81 in 2.0 mi NE 10.4 mph - N/A   Overcast
4:35 AM 55.0 °F - 52.9 °F 92% 29.80 in 2.5 mi NE 11.5 mph - N/A   Overcast
4:55 AM 55.4 °F - 53.1 °F 92% 29.79 in 2.5 mi NE 16.1 mph 20.7 mph N/A   Overcast
5:15 AM 55.4 °F - 53.1 °F 92% 29.78 in 3.0 mi ENE 11.5 mph - N/A   Overcast
5:35 AM 55.4 °F - 53.1 °F 92% 29.78 in 2.0 mi ENE 15.0 mph 19.6 mph N/A   Overcast
5:55 AM 55.6 °F - 53.2 °F 92% 29.78 in 0.8 mi NE 13.8 mph 18.4 mph N/A   Overcast
6:15 AM 55.9 °F - 53.6 °F 92% 29.78 in 0.5 mi ENE 13.8 mph - N/A Fog Fog
6:35 AM 56.3 °F - 53.8 °F 91% 29.78 in 0.5 mi ENE 15.0 mph 19.6 mph N/A Fog Fog
6:55 AM 56.5 °F - 54.1 °F 92% 29.78 in 0.5 mi ENE 12.7 mph - N/A Fog Fog
7:35 AM 56.7 °F - 54.5 °F 92% 29.77 in 0.5 mi ENE 12.7 mph - N/A Fog Fog
7:55 AM 56.8 °F - 54.5 °F 92% 29.76 in 0.5 mi ENE 13.8 mph - N/A Fog Fog
8:15 AM 57.4 °F - 55.0 °F 92% 29.75 in 0.2 mi ENE 16.1 mph 19.6 mph N/A Fog Fog
8:35 AM 57.6 °F - 55.4 °F 92% 29.75 in 0.2 mi ENE 16.1 mph 21.9 mph N/A Fog Fog
8:55 AM 57.9 °F - 55.6 °F 92% 29.75 in 0.2 mi ENE 15.0 mph - N/A Fog Fog
9:15 AM 58.1 °F - 55.6 °F 91% 29.74 in 0.5 mi ENE 12.7 mph 20.7 mph N/A Fog Fog
9:35 AM 58.3 °F - 56.1 °F 93% 29.74 in 1.2 mi ENE 15.0 mph 19.6 mph N/A   Overcast
9:55 AM 58.5 °F - 56.3 °F 93% 29.75 in 2.0 mi ENE 11.5 mph - N/A   Overcast
10:15 AM 59.0 °F - 56.5 °F 91% 29.74 in 2.5 mi ENE 17.3 mph 20.7 mph N/A   Overcast
10:35 AM 59.0 °F - 56.5 °F 91% 29.74 in 2.5 mi ENE 15.0 mph 21.9 mph N/A   Overcast
10:55 AM 59.0 °F - 56.5 °F 91% 29.74 in 4.0 mi ENE 15.0 mph 23.0 mph N/A   Overcast
11:15 AM 59.0 °F - 56.5 °F 91% 29.73 in 4.0 mi ENE 17.3 mph - N/A   Overcast
11:35 AM 59.0 °F - 56.3 °F 91% 29.72 in 3.0 mi ENE 15.0 mph 20.7 mph N/A   Overcast
11:55 AM 59.2 °F - 56.5 °F 91% 29.71 in 4.0 mi ENE 13.8 mph 20.7 mph N/A   Overcast
12:15 PM 59.4 °F - 56.5 °F 90% 29.71 in 4.0 mi ENE 16.1 mph 24.2 mph N/A   Overcast
12:35 PM 59.9 °F - 56.7 °F 89% 29.70 in 5.0 mi ENE 17.3 mph 20.7 mph N/A   Overcast
12:55 PM 60.3 °F - 57.2 °F 90% 29.71 in 5.0 mi ENE 15.0 mph 24.2 mph N/A   Overcast
1:15 PM 60.4 °F - 57.2 °F 89% 29.71 in 5.0 mi East 12.7 mph 19.6 mph N/A   Overcast
1:35 PM 60.8 °F - 57.6 °F 89% 29.69 in 4.0 mi East 15.0 mph - N/A   Overcast
1:55 PM 60.8 °F - 57.7 °F 90% 29.67 in 4.0 mi East 17.3 mph - N/A   Overcast
2:15 PM 61.2 °F - 58.1 °F 90% 29.65 in 3.0 mi East 16.1 mph 23.0 mph N/A   Overcast
2:35 PM 61.3 °F - 58.5 °F 90% 29.64 in 4.0 mi East 17.3 mph 20.7 mph N/A   Overcast
2:55 PM 62.2 °F - 59.0 °F 89% 29.63 in 5.0 mi East 16.1 mph - N/A   Overcast
3:15 PM 63.1 °F - 59.9 °F 89% 29.62 in 7.0 mi ENE 17.3 mph 21.9 mph N/A   Overcast
3:35 PM 63.1 °F - 59.9 °F 89% 29.61 in 7.0 mi East 17.3 mph 23.0 mph N/A   Overcast
3:55 PM 64.0 °F - 60.3 °F 87% 29.59 in 7.0 mi ENE 16.1 mph 21.9 mph N/A   Overcast
4:15 PM 64.0 °F - 60.6 °F 89% 29.58 in 7.0 mi East 13.8 mph - N/A Thunderstorm Thunderstorm
4:35 PM 64.8 °F - 61.5 °F 89% 29.58 in 2.0 mi East 11.5 mph - 0.12 in Rain Heavy Rain
4:55 PM 66.4 °F - 63.1 °F 89% 29.59 in 7.0 mi East 4.6 mph - 0.12 in Thunderstorm Mostly Cloudy
5:15 PM 66.9 °F - 58.3 °F 74% 29.62 in 10.0 mi SW 25.3 mph 32.2 mph N/A   Scattered Clouds
5:35 PM 64.6 °F - 54.1 °F 69% 29.63 in 10.0 mi SW 25.3 mph 31.1 mph N/A   Scattered Clouds
5:55 PM 61.0 °F - 50.5 °F 68% 29.64 in 10.0 mi SW 20.7 mph 28.8 mph 0.01 in   Clear
6:15 PM 58.3 °F - 48.0 °F 69% 29.65 in 10.0 mi SW 24.2 mph 34.5 mph N/A   Clear
6:35 PM 55.6 °F - 46.6 °F 72% 29.67 in 10.0 mi SW 21.9 mph 31.1 mph N/A   Clear
6:55 PM 52.3 °F - 43.9 °F 73% 29.69 in 10.0 mi SW 21.9 mph 34.5 mph N/A   Clear
7:15 PM 50.2 °F - 43.2 °F 77% 29.71 in 10.0 mi WSW 18.4 mph 26.5 mph N/A   Mostly Cloudy
7:35 PM 49.1 °F - 41.5 °F 75% 29.72 in 10.0 mi SW 27.6 mph 36.8 mph N/A   Overcast
7:55 PM 47.5 °F - 40.1 °F 76% 29.73 in 10.0 mi WSW 21.9 mph 36.8 mph N/A   Overcast
8:15 PM 45.9 °F 37.2 °F 38.3 °F 75% 29.75 in 10.0 mi WSW 25.3 mph 38.0 mph N/A   Mostly Cloudy
8:35 PM 45.5 °F 36.7 °F 38.5 °F 76% 29.75 in 10.0 mi SW 25.3 mph 33.4 mph N/A   Overcast
8:55 PM 42.8 °F 33.3 °F 36.0 °F 77% 29.77 in 10.0 mi WSW 24.2 mph 29.9 mph N/A   Overcast
9:15 PM 41.4 °F 31.4 °F 35.1 °F 78% 29.77 in 10.0 mi WSW 24.2 mph 35.7 mph N/A   Mostly Cloudy
9:35 PM 41.4 °F 31.9 °F 34.2 °F 76% 29.78 in 10.0 mi WSW 21.9 mph 32.2 mph N/A   Mostly Cloudy
9:55 PM 41.0 °F 31.1 °F 33.1 °F 73% 29.78 in 10.0 mi WSW 23.0 mph 31.1 mph N/A   Overcast
10:15 PM 40.1 °F 30.5 °F 32.2 °F 73% 29.79 in 10.0 mi SW 20.7 mph 34.5 mph N/A   Overcast
10:35 PM 40.1 °F 30.5 °F 32.0 °F 73% 29.78 in 10.0 mi WSW 20.7 mph 25.3 mph N/A   Overcast
10:55 PM 39.7 °F 29.2 °F 32.0 °F 74% 29.78 in 10.0 mi WSW 24.2 mph 32.2 mph N/A   Overcast
11:15 PM 39.4 °F 29.2 °F 31.8 °F 74% 29.78 in 10.0 mi WSW 21.9 mph 31.1 mph N/A   Overcast
11:35 PM 39.2 °F 28.7 °F 31.5 °F 74% 29.79 in 10.0 mi WSW 23.0 mph 32.2 mph N/A   Overcast
11:55 PM 39.2 °F 27.6 °F 31.1 °F 73% 29.78 in 10.0 mi WSW 28.8 mph 33.4 mph N/A   Overcast